CAPE
1996 2099 2468 1866 1792 1826 1449 1645 1430 1468 1313 1427 1493 558 104 1143 896 882 1142 1323 1625 1827 1662 1647 1597 1542 1797 1681 1401 1464 1360 1260 1063 1063 1173 1324 1222 1252 866 566 656 842 606
1807 1893 1643 1720 1548 1797 2095 1919 1617 1695 1451 1448 1313 902 288 137 1435 763 441 1555 1525 1465 1518 1635 1491 1614 1636 1653 1701 1715 1644 1335 1425 1096 962 1272 1285 1107 1052 643 576 618 632
1969 2691 1943 1852 1530 1943 1395 1380 1309 1192 825 116 267 748 411 574 1484 1430 809 416 1003 1597 1558 1235 1247 1567 1720 1684 1489 1665 1661 1709 1346 1033 1063 1516 1504 1394 1098 746 727 1121 1327
2015 2537 2080 1819 2028 2097 1384 1026 1049 1305 428 91 114 116 23 163 205 935 693 346 104 640 1143 1487 1418 1279 1359 1629 1760 1726 1528 1529 2081 1795 1728 1766 1673 1605 1338 1338 1103 1153 1187
2220 2671 2054 1880 2593 1719 1800 1667 1663 1112 677 229 85 25 11 40 68 58 347 577 771 412 532 1766 1767 1482 866 1209 1464 1714 1792 1741 1979 1649 1908 1998 1702 1724 1696 1564 1633 1382 1093
2608 2859 2377 2375 2568 1624 1409 1657 1313 1146 679 399 8 1 21 45 62 86 412 738 794 624 538 1184 1202 1075 1522 878 1183 1333 1720 1841 1819 1742 1761 1706 1626 2007 1972 1916 1840 1770 1433
2763 3116 2369 2457 2327 1743 1312 1509 1224 1279 846 339 0 3 31 83 53 157 205 163 243 326 479 660 838 1090 1251 1177 1034 981 1076 1287 1522 1479 1448 1797 1422 1455 1587 1343 1591 1729 1613
2778 2819 2772 2058 2387 1776 1503 1452 1387 1018 529 13 0 3 39 31 65 124 234 180 219 127 114 108 345 586 817 1341 1477 1198 1413 1351 1287 1283 1094 917 847 627 827 977 1267 1144 1235
2490 2772 2437 2365 2406 2016 1571 1705 1704 1534 435 148 40 34 7 37 32 83 391 246 263 75 22 116 332 866 1079 520 373 525 1054 1140 1078 817 257 16 0 0 0 29 121 258 300
2166 2272 2373 2395 2901 1956 1714 1831 1726 1518 1352 54 0 0 231 692 14 76 66 332 267 241 90 4 168 235 8 0 0 4 15 0 0 0 0 0 0 0 0 0 0 0 0
2393 2081 2231 2094 2560 2710 2247 2498 1995 2096 971 325 0 0 1 0 124 42 114 146 213 202 220 56 24 44 6 0 0 0 0 0 0 0 0 0 0 0 0 0 0 0 0
1840 2495 2212 2554 2834 2761 2573 2689 2431 2056 1628 826 2 0 0 0 0 36 7 87 157 230 177 160 67 13 48 9 0 0 0 0 0 0 0 0 0 0 0 0 0 0 0
1332 2273 2524 2496 2685 3053 2667 2806 2719 1951 1967 1345 744 0 0 0 0 0 0 1 3 31 83 59 84 59 15 63 17 0 0 0 0 0 0 0 0 0 0 0 0 0 0
1246 1637 2010 2396 2751 2560 2949 2926 2613 2171 1732 1670 1106 529 0 0 17 0 0 0 0 0 1 1 7 3 25 3 120 91 0 0 0 0 0 0 0 0 0 0 0 0 0
1535 1650 1858 2359 2411 2643 2919 3017 2631 2401 1746 1840 1315 994 285 0 29 21 1 0 0 0 4 186 0 36 6 39 75 101 67 16 0 0 0 0 0 0 0 11 33 66 102
2958 2022 2129 2101 2434 2642 2945 3145 2748 2583 2232 1623 1172 1032 783 28 36 42 26 0 0 0 0 0 0 0 6 0 85 37 175 14 9 0 0 0 0 0 0 0 2 9 34
3824 3255 2983 2433 2222 2688 3187 3314 3216 2556 2424 1986 1276 1033 1104 595 33 34 35 20 13 4 0 0 0 132 264 355 40 88 138 149 85 0 0 0 0 0 0 0 0 0 4
4009 4022 3452 3142 2733 2586 3320 3272 3074 2476 2491 2153 1631 1260 1130 516 674 625 116 659 289 353 15 243 100 37 430 347 480 590 194 4 2 7 0 0 0 0 0 0 0 0 0
3917 3577 3867 3981 3532 3127 3233 3200 3035 2841 2568 2353 1877 1722 1255 924 747 408 379 307 143 136 249 77 69 151 108 305 498 526 426 179 0 0 0 0 0 0 0 0 0 0 0
3901 4008 4007 4187 3940 3597 3317 3056 2845 2920 2941 2458 2172 1785 1571 1199 909 820 622 936 759 389 587 215 37 15 156 299 302 212 404 412 157 103 18 1 0 0 0 0 0 0 0
3836 3920 4000 4063 3934 3570 2623 3369 3465 3369 3530 2922 2468 2074 1742 1445 751 923 652 1266 1275 665 70 190 148 46 77 75 300 111 199 245 797 366 125 113 122 150 130 0 9 43 0
3961 4017 3946 3928 3778 2983 1813 1433 2574 3397 3493 3516 3422 3002 2376 1185 909 555 418 475 785 1151 922 166 179 307 655 208 315 196 217 235 253 110 284 241 178 238 266 288 30 4 0
3776 3996 3922 3915 3880 3837 1970 1562 1364 3262 3472 3745 3805 3600 2402 1842 1347 1303 766 757 759 632 416 1552 1062 1303 720 888 797 654 862 513 352 559 403 273 285 506 241 123 9 0 0
3844 4063 4026 3988 3966 3847 2469 1782 1371 2628 3331 3819 3855 3815 3720 3353 2646 1882 1374 1147 1194 1101 512 434 854 1080 1257 1225 1205 1034 611 744 619 480 308 261 174 75 60 16 2 0 0
3619 3381 3484 4004 4265 3733 2503 2116 1701 2310 2748 3562 3965 3869 3777 3728 2498 1428 1809 1462 1468 1251 566 420 220 325 508 488 355 433 338 555 199 400 222 96 18 10 22 16 6 1 0
2997 2815 2895 3602 3221 3645 3015 2479 1897 1792 2249 2285 3149 3353 2212 2780 2299 1512 1390 1460 1487 1198 967 513 312 134 165 132 70 214 765 464 183 159 31 0 0 0 4 4 0 0 0
CIN
0 0 0 0 0 -1 0 -2 -3 0 0 0 0 0 -49 0 0 0 0 -48 -19 -1 -1 -2 -1 -2 0 0 0 0 0 -1 -3 -2 -1 0 0 0 -2 -8 -5 -1 -5
0 0 -2 0 0 0 0 0 0 0 -2 -3 -6 0 -8 -43 0 -1 -8 -6 -23 -11 -5 -2 -3 -2 -1 0 0 0 0 0 0 -2 -4 -1 0 0 0 -3 -4 -6 -6
0 -3 0 0 0 0 -1 0 0 0 -1 -30 -27 0 0 0 -3 -27 0 -10 -11 -33 -14 -10 -5 -3 -1 0 0 0 0 0 -1 -3 -4 0 0 0 0 -3 -2 0 0
-10 0 0 0 0 0 -5 -3 -2 -9 -15 -52 -20 -8 -1 -16 -24 -1 -10 -22 -66 -1 -40 -18 -12 -9 -4 0 0 0 -1 -5 0 0 0 0 0 0 0 0 0 0 0
0 0 0 0 -1 0 0 0 -1 -1 -1 -2 -3 0 0 0 0 0 -19 -5 -1 -4 -1 -39 -18 -14 -22 -5 -2 0 0 -1 -1 -3 0 0 -2 0 0 0 0 0 -1
0 0 -1 -5 -6 -1 0 0 0 -1 -1 0 -3 0 0 0 0 -8 -6 -4 0 0 0 0 -4 -8 -16 -16 -4 -3 -1 0 -2 -2 -4 -2 -2 0 0 0 0 0 0
-1 0 0 -7 -2 0 0 0 0 0 0 -2 0 0 0 -24 0 -26 -29 -41 -20 -15 -1 0 0 0 -9 -15 -14 -16 -11 -2 -1 -2 -4 -1 -5 -3 -3 -7 -4 -1 -1
-3 0 -3 0 -4 0 0 0 0 0 0 -14 0 0 0 0 0 -13 -7 -21 -24 -58 -61 -57 -7 0 0 0 -7 -17 -10 -4 -2 -2 -6 -12 -17 -26 -15 -13 -7 -6 -5
0 -2 0 -2 -1 -2 -1 0 0 0 0 -14 -23 -9 0 0 0 -5 -1 -2 -1 -36 -40 -25 -1 0 0 -4 -17 -26 -17 -7 -6 -11 -70 -50 0 0 0 -62 -82 -54 -53
0 0 0 -1 -2 0 0 0 0 0 -4 -39 0 0 -14 -3 0 -2 -1 0 -1 -1 -23 0 -7 -8 -23 0 0 -61 -20 0 0 0 0 0 0 0 0 0 0 0 0
0 0 0 0 0 0 0 0 0 -3 -1 -7 0 0 -2 0 -5 -10 -2 -2 0 -1 -2 -28 -56 -51 -25 0 0 0 0 0 0 0 0 0 0 0 0 0 0 0 0
0 0 0 0 0 0 0 0 0 -1 -3 -4 -2 0 0 0 0 -36 0 -3 -1 0 0 0 -15 -20 -62 0 0 0 0 0 0 0 0 0 0 0 0 0 0 0 0
0 0 0 0 0 0 0 0 0 0 -1 -4 -32 0 0 0 0 0 0 0 -7 -11 -14 -10 -5 -3 -76 -13 -1 0 0 0 0 0 0 0 0 0 0 0 0 0 0
0 0 0 0 0 0 0 0 0 -1 -11 -12 -39 -69 0 0 -139 0 0 0 0 0 0 0 -64 -9 -53 -3 -29 -102 0 0 0 0 0 0 0 0 0 0 0 0 0
-1 0 0 -1 -2 -1 0 0 -1 -5 -29 -30 -45 -61 -137 0 -173 -190 -13 0 0 0 0 -22 0 -69 -75 -52 -53 -41 -85 -102 0 0 0 0 0 0 0 -114 -94 -78 -62
-3 0 0 -2 -2 -1 0 0 0 0 -10 -44 -62 -79 -90 -47 -213 -205 -202 0 0 0 0 0 0 0 -53 0 -58 -89 -21 -185 -282 0 0 0 0 0 0 0 -51 -104 -109
-1 -9 0 -5 -4 0 0 0 0 0 -7 -27 -70 -86 -83 -118 -242 -241 -234 -203 -130 -133 0 0 0 -84 -40 -17 -74 -46 -21 -48 -94 0 0 0 0 0 0 0 0 0 -46
-16 -7 -4 -3 -3 0 0 0 -2 -2 -11 -30 -60 -82 -87 -167 -158 -121 -192 -55 -87 -83 -183 -100 -93 -125 -38 -15 0 0 -11 -6 0 -81 -3 0 0 0 0 0 0 0 0
-35 -33 -8 0 -3 -1 0 -1 -7 -5 -11 -26 -46 -57 -98 -119 -147 -154 -150 -125 -169 -185 -104 -132 -120 -89 -56 -17 -3 -1 -1 -7 0 0 0 0 0 0 0 0 0 0 0
-56 -40 -25 -10 -9 -10 -6 -13 -15 -8 -4 -30 -34 -58 -69 -105 -134 -136 -149 -76 -76 -102 -64 -91 -89 -79 -41 -6 -10 -1 0 -6 -18 -74 -21 -1 0 0 0 0 0 0 0
-79 -72 -49 -27 -24 -16 -54 -14 -4 -11 -4 -14 -29 -63 -74 -103 -193 -170 -150 -80 -59 -118 -234 -150 -94 -61 -34 -4 -8 -22 -2 -1 -12 -3 -43 -3 0 -30 -29 0 -50 -69 0
-80 -69 -59 -47 -39 -48 -145 -193 -115 -35 -26 -4 0 -13 -29 -180 -188 -226 -114 -202 -129 -56 -65 -171 -95 -43 0 -5 -2 -4 -9 -18 -10 -1 0 -8 -27 -1 -6 -4 -2 -4 0
-98 -85 -80 -66 -54 -51 -165 -198 -247 -52 -37 -12 0 -1 -44 -51 -124 -92 -47 -30 -34 -75 -190 -24 -48 -2 0 0 0 0 0 -2 -1 -16 -1 0 -1 -1 -6 -1 -2 0 0
-145 -114 -103 -88 -64 -74 -196 -236 -231 -127 -58 -2 0 0 -1 0 -15 -69 -81 -38 -40 -42 -156 -96 -64 -40 0 0 0 0 -4 -7 0 -1 0 0 -11 -32 -26 0 -97 0 0
-150 -134 -89 -55 -39 -48 -141 -197 -201 -137 -91 -6 0 0 0 0 -21 -83 -58 -10 -5 -45 -123 -86 -53 -113 -35 -7 -15 -1 -5 0 -4 -1 -9 -4 0 0 0 0 -1 -52 0
-227 -198 -170 -100 -110 -40 -59 -98 -127 -83 -31 -11 -6 -3 -103 -48 -64 -162 -61 -20 -7 -24 -8 -64 -63 -143 -84 -38 -53 -19 -2 0 -6 0 -15 0 0 0 0 0 0 0 0
Wind_Speed
10 11 8 9 7 6 6 6 7 9 7 9 10 9 8 9 5 4 6 10 11 10 9 8 8 9 11 10 12 12 11 12 11 12 11 11 11 9 9 5 4 8 4
9 5 8 8 6 4 1 2 2 5 6 5 6 8 8 8 10 3 7 11 11 10 10 10 10 12 12 12 12 14 14 13 12 12 10 10 10 10 8 5 4 4 3
8 9 7 10 5 2 4 6 6 7 12 11 8 12 7 11 16 7 3 2 13 13 10 9 9 11 14 14 12 14 16 19 12 15 12 11 11 9 9 7 4 3 1
11 11 10 8 2 6 6 8 8 12 6 nan 9 10 nan 8 9 11 6 4 4 10 12 11 9 10 12 13 12 11 11 15 20 22 23 13 6 4 7 7 7 4 3
11 11 10 5 5 7 11 9 13 7 13 10 nan nan nan nan nan nan 10 7 5 7 6 17 14 13 12 12 12 11 11 11 13 16 18 20 14 8 6 6 7 5 5
11 9 8 5 7 6 12 14 11 9 10 12 nan nan nan nan nan nan 9 13 12 5 7 5 14 13 15 11 11 11 13 15 14 16 17 16 18 19 9 7 6 4 5
9 8 8 5 6 8 10 16 15 16 15 13 nan nan nan nan nan 7 7 6 9 8 9 8 8 12 15 14 8 7 10 13 14 13 14 14 14 14 15 13 9 5 13
6 7 5 6 4 4 12 15 14 12 14 nan nan nan nan nan nan 3 1 5 4 8 10 8 9 8 8 12 10 8 8 10 12 13 13 11 9 7 6 4 6 6 6
5 7 6 4 6 6 11 13 14 12 11 11 nan nan nan nan nan nan 8 6 8 nan nan 11 13 13 10 13 17 17 16 15 15 14 13 nan nan nan nan nan 13 12 13
6 6 5 6 5 6 6 8 11 14 14 nan nan nan 11 7 nan nan nan 8 8 8 nan nan 16 13 nan nan nan nan nan nan nan nan nan nan nan nan nan nan nan nan nan
8 8 4 5 5 8 11 8 11 15 15 12 nan nan nan nan 9 nan 9 12 9 10 11 nan nan nan nan nan nan nan nan nan nan nan nan nan nan nan nan nan nan nan nan
8 8 5 4 4 8 9 9 13 16 16 14 nan nan nan nan nan nan nan nan 7 10 9 9 nan nan nan nan nan nan nan nan nan nan nan nan nan nan nan nan nan nan nan
6 8 8 6 5 9 8 9 12 14 15 16 16 nan nan nan nan nan nan nan nan nan nan nan nan nan nan nan nan nan nan nan nan nan nan nan nan nan nan nan nan nan nan
5 9 10 6 6 7 7 6 11 13 14 14 17 15 nan nan nan nan nan nan nan nan nan nan nan nan nan nan 12 nan nan nan nan nan nan nan nan nan nan nan nan nan nan
5 9 13 8 7 8 7 3 8 11 13 14 15 15 15 nan nan nan nan nan nan nan nan 18 nan nan nan nan nan 14 nan nan nan nan nan nan nan nan nan nan nan nan 26
10 9 15 10 8 8 7 4 2 8 11 13 16 19 14 nan nan nan nan nan nan nan nan nan nan nan nan nan nan nan 16 nan nan nan nan nan nan nan nan nan nan nan nan
13 13 15 14 11 8 10 7 1 5 14 15 20 21 24 19 nan nan nan nan nan nan nan nan nan 24 21 20 nan nan 23 24 nan nan nan nan nan nan nan nan nan nan nan
17 18 18 19 15 11 11 12 9 8 13 18 21 23 24 24 23 20 22 22 21 17 nan 21 18 nan 28 32 27 29 27 nan nan nan nan nan nan nan nan nan nan nan nan
18 17 17 19 19 13 12 13 15 15 16 17 21 24 27 29 28 26 26 28 24 23 22 nan nan 25 26 30 31 31 30 30 nan nan nan nan nan nan nan nan nan nan nan
18 17 15 15 17 16 13 12 15 15 16 19 19 22 27 30 31 32 33 29 24 33 28 24 nan nan 31 28 31 31 35 37 33 36 nan nan nan nan nan nan nan nan nan
16 17 17 17 16 19 16 16 17 19 19 21 23 24 27 30 34 34 34 37 39 36 nan 33 28 nan nan nan 33 35 36 33 38 39 39 44 46 49 51 nan nan nan nan
14 14 16 18 18 16 19 22 24 23 22 23 25 26 27 35 36 40 38 42 43 43 42 27 32 37 33 31 28 35 35 32 36 42 43 42 48 44 42 40 nan nan nan
15 15 14 15 16 16 19 26 28 23 25 28 33 34 35 35 42 42 46 42 45 47 51 42 33 34 34 34 31 33 32 38 36 44 46 42 42 41 38 38 nan nan nan
20 17 17 17 14 14 21 27 34 28 24 26 31 36 39 41 45 48 49 50 54 51 49 47 43 46 36 35 36 33 36 37 35 41 44 40 39 nan nan nan nan nan nan
23 21 21 20 18 14 24 28 34 31 30 31 34 35 42 44 50 57 58 53 53 55 57 52 58 56 56 46 42 40 40 36 38 40 44 nan nan nan nan nan nan nan nan
28 27 27 28 28 28 39 36 32 28 34 42 39 36 55 52 66 69 58 60 63 67 50 58 49 50 45 40 nan 39 37 39 42 37 nan nan nan nan nan nan nan nan nan
Wind_Direction
114 111 137 95 92 41 44 358 12 16 17 336 9 341 320 323 331 345 317 8 25 31 27 12 358 351 343 345 346 341 331 316 302 290 290 300 299 301 303 309 291 302 300
117 123 95 84 73 99 168 142 26 16 8 350 356 335 317 322 295 358 331 344 15 31 29 18 10 359 355 351 355 345 345 333 335 319 292 296 297 292 292 305 316 315 304
101 116 89 87 88 67 53 19 17 3 345 333 333 341 324 322 307 345 13 344 339 18 28 25 25 17 6 6 5 2 0 6 28 23 19 309 298 291 290 282 288 298 319
106 93 80 79 119 39 38 27 25 23 353 nan 334 321 nan 311 318 325 358 15 349 332 353 8 17 19 21 25 24 15 16 25 29 25 30 1 288 320 297 280 264 265 271
91 92 87 91 62 63 12 12 31 31 354 358 nan nan nan nan nan nan 293 326 310 24 351 347 2 7 16 14 19 29 43 35 34 30 36 19 24 346 294 269 263 279 295
89 72 74 90 67 358 15 7 35 30 43 25 nan nan nan nan nan nan 342 339 330 12 7 351 356 3 3 20 17 25 24 21 22 27 31 31 40 41 9 303 246 281 308
74 53 62 2 38 25 22 6 8 37 26 10 nan nan nan nan nan 331 332 290 309 321 301 310 357 360 345 356 354 11 18 25 18 21 26 33 48 40 42 57 15 299 303
58 57 40 50 21 10 8 11 22 40 26 nan nan nan nan nan nan 339 350 292 258 315 306 308 306 342 351 318 318 316 315 336 348 359 336 321 323 335 332 316 357 318 308
43 36 27 359 20 39 1 15 22 41 28 17 nan nan nan nan nan nan 360 331 345 nan nan 322 325 318 312 312 337 321 316 310 309 312 312 nan nan nan nan nan 273 281 279
47 30 12 356 6 27 23 23 40 50 37 nan nan nan 66 102 nan nan nan 357 360 345 nan nan 330 320 nan nan nan nan nan nan nan nan nan nan nan nan nan nan nan nan nan
26 32 15 5 0 16 359 56 36 37 20 46 nan nan nan nan 68 nan 25 4 13 358 343 nan nan nan nan nan nan nan nan nan nan nan nan nan nan nan nan nan nan nan nan
355 5 24 26 18 13 5 37 35 23 39 44 nan nan nan nan nan nan nan nan 58 356 14 3 nan nan nan nan nan nan nan nan nan nan nan nan nan nan nan nan nan nan nan
345 342 351 357 5 5 5 49 27 27 25 18 21 nan nan nan nan nan nan nan nan nan nan nan nan nan nan nan nan nan nan nan nan nan nan nan nan nan nan nan nan nan nan
331 330 324 339 357 1 9 36 30 23 18 26 24 27 nan nan nan nan nan nan nan nan nan nan nan nan nan nan 297 nan nan nan nan nan nan nan nan nan nan nan nan nan nan
290 321 323 323 328 346 354 39 53 13 13 15 14 14 15 nan nan nan nan nan nan nan nan 324 nan nan nan nan nan 337 nan nan nan nan nan nan nan nan nan nan nan nan 279
316 307 321 319 307 325 338 339 36 2 7 1 1 359 5 nan nan nan nan nan nan nan nan nan nan nan nan nan nan nan 333 nan nan nan nan nan nan nan nan nan nan nan nan
304 309 302 309 305 300 323 322 295 330 334 341 354 354 358 352 nan nan nan nan nan nan nan nan nan 326 333 335 nan nan 320 322 nan nan nan nan nan nan nan nan nan nan nan
308 302 299 302 312 300 312 329 325 308 323 329 336 341 347 340 345 338 332 330 322 325 nan 342 344 nan 339 330 325 322 316 nan nan nan nan nan nan nan nan nan nan nan nan
324 316 304 303 308 301 307 330 336 331 323 315 318 327 331 337 333 330 333 333 329 314 322 nan nan 334 328 332 320 317 305 310 nan nan nan nan nan nan nan nan nan nan nan
342 338 330 317 311 311 300 323 339 343 333 320 313 317 321 329 328 332 329 329 312 317 307 312 nan nan 327 327 325 316 311 302 316 313 nan nan nan nan nan nan nan nan nan
348 345 340 343 335 326 312 323 336 335 335 328 321 325 324 324 326 330 324 325 324 328 nan 312 320 nan nan nan 320 318 318 308 312 312 310 313 315 314 316 nan nan nan nan
344 354 360 352 351 344 347 332 334 327 330 325 321 324 320 320 320 316 317 314 312 313 314 306 309 313 308 309 314 315 318 320 319 314 315 312 308 314 313 314 nan nan nan
317 334 343 347 349 344 326 326 325 313 313 318 316 314 314 311 310 312 307 298 310 316 317 319 314 309 314 310 308 314 317 311 319 309 316 313 311 316 313 309 nan nan nan
313 312 320 319 317 321 310 317 313 316 312 310 309 306 305 304 304 305 305 316 314 309 312 322 317 307 311 304 307 312 308 312 315 316 315 315 312 nan nan nan nan nan nan
290 283 282 288 289 282 281 287 292 300 301 295 290 294 292 295 297 304 305 305 302 303 302 308 304 294 292 300 297 306 309 310 312 315 312 nan nan nan nan nan nan nan nan
289 285 282 278 278 280 284 287 289 284 278 267 273 303 322 304 311 302 301 292 292 285 280 299 304 297 297 298 nan 306 307 310 314 315 nan nan nan nan nan nan nan nan nan